Weather History for Shreveport, LA

Change the Weather History Date:

Wednesday, May 8, 2013

  Actual Average Record
Temperature  
Mean Temperature 71 °F 71 °F  
Max Temperature 85 °F 82 °F 94 °F (1875)
Min Temperature 56 °F 61 °F 44 °F (1917)
Degree Days  
Heating Degree Days 0 0  
Month to date heating degree days 38 5  
Since 1 July heating degree days 2081 2224  
Cooling Degree Days 6 7  
Month to date cooling degree days 15 47  
Year to date cooling degree days 134 182  
Growing Degree Days 20 (Base 50)    
Moisture  
Dew Point 56 °F    
Average Humidity 65    
Maximum Humidity 93    
Minimum Humidity 37    
Precipitation  
Precipitation 0.00 in 0.16 in 2.70 in (1881)
Month to date precipitation 0.13 1.31  
Year to date precipitation 14.33 18.59  
Snow  
Snow 0.00 in - - ()
Month to date snowfall 0.0  
Since 1 July snowfall 0.1  
Snow Depth 0.00 in    
Sea Level Pressure  
Sea Level Pressure 30.00 in    
Wind  
Wind Speed 7 mph (SSW)    
Max Wind Speed 17 mph    
Max Gust Speed 21 mph    
Visibility 10 miles    
Events      
T = Trace of Precipitation, MM = Missing Value Source: NWS Daily Summary

Daily Weather History Graph

Daily Weather History Graph

Search for Another Location

Airport:

Trip Planner

Search our weather history database for the weather conditions in past years. The results will help you decide how hot, cold, wet, or windy it might be!

Date:

Astronomy

May. 08, 2013 Rise Set
Actual Time 6:22 AM CDT 8:01 PM CDT
Civil Twilight 5:55 AM CDT 8:28 PM CDT
Nautical Twilight 5:23 AM CDT 9:00 PM CDT
Astronomical Twilight 4:50 AM CDT 9:34 PM CDT
Moon 5:26 AM CDT (5/8) 7:03 PM CDT (5/8)
Length of Visible Light 14h 32m
Length of Day
13h 39m
Waning Crescent, 2% of the Moon is Illuminated
May 8
Waning Crescent
May 9
New
May 17
First Quarter
May 24
Full
May 31
Last Quarter

Hourly Weather History & Observations

Time (CDT) Temp. Heat Index Dew Point Humidity Pressure Visibility Wind Dir Wind Speed Gust Speed Precip Events Conditions
12:56 AM 61.0 °F - 54.0 °F 78% 30.01 in 10.0 mi Calm Calm - N/A   Clear
1:56 AM 59.0 °F - 54.0 °F 83% 29.99 in 10.0 mi Calm Calm - N/A   Clear
2:56 AM 59.0 °F - 53.1 °F 81% 30.00 in 10.0 mi Calm Calm - N/A   Clear
3:56 AM 57.0 °F - 53.1 °F 87% 29.99 in 10.0 mi Calm Calm - N/A   Clear
4:56 AM 57.9 °F - 53.1 °F 84% 30.00 in 10.0 mi Calm Calm - N/A   Clear
5:56 AM 55.9 °F - 53.1 °F 90% 30.00 in 10.0 mi Calm Calm - N/A   Partly Cloudy
6:56 AM 60.1 °F - 55.0 °F 83% 30.02 in 10.0 mi SSW 5.8 mph - N/A   Scattered Clouds
7:56 AM 63.0 °F - 55.9 °F 78% 30.04 in 10.0 mi SW 6.9 mph - N/A   Scattered Clouds
8:56 AM 69.1 °F - 57.0 °F 65% 30.05 in 10.0 mi WSW 3.5 mph - N/A   Partly Cloudy
9:56 AM 73.9 °F - 55.0 °F 52% 30.05 in 10.0 mi SW 5.8 mph - N/A   Mostly Cloudy
10:56 AM 78.1 °F - 55.9 °F 46% 30.05 in 10.0 mi South 10.4 mph - N/A   Mostly Cloudy
11:56 AM 82.0 °F 81.7 °F 57.0 °F 42% 30.05 in 10.0 mi South 12.7 mph - N/A   Mostly Cloudy
12:56 PM 84.0 °F 83.5 °F 57.9 °F 41% 30.04 in 10.0 mi SW 8.1 mph 17.3 mph N/A   Scattered Clouds
1:56 PM 82.9 °F 82.6 °F 57.9 °F 42% 30.03 in 10.0 mi South 13.8 mph 17.3 mph N/A   Scattered Clouds
2:56 PM 84.9 °F 83.7 °F 55.9 °F 37% 30.01 in 10.0 mi SSW 10.4 mph - N/A   Scattered Clouds
3:56 PM 82.9 °F 82.1 °F 55.9 °F 39% 29.99 in 10.0 mi South 11.5 mph 20.7 mph N/A   Scattered Clouds
4:56 PM 82.0 °F 81.7 °F 57.0 °F 42% 29.98 in 10.0 mi South 10.4 mph - N/A   Scattered Clouds
5:56 PM 81.0 °F 81.3 °F 59.0 °F 47% 29.97 in 10.0 mi South 10.4 mph - N/A   Mostly Cloudy
6:56 PM 80.1 °F 80.7 °F 59.0 °F 48% 29.96 in 10.0 mi South 11.5 mph - N/A   Mostly Cloudy
7:56 PM 75.0 °F - 61.0 °F 62% 29.96 in 10.0 mi South 5.8 mph - N/A   Mostly Cloudy
8:56 PM 73.0 °F - 61.0 °F 66% 29.97 in 10.0 mi South 6.9 mph - N/A   Mostly Cloudy
9:56 PM 73.0 °F - 60.1 °F 64% 29.96 in 10.0 mi South 9.2 mph - N/A   Mostly Cloudy
10:56 PM 71.1 °F - 59.0 °F 66% 29.96 in 10.0 mi South 9.2 mph - N/A   Overcast
11:56 PM 70.0 °F - 57.9 °F 65% 29.97 in 10.0 mi South 11.5 mph - N/A   Overcast